User: anonymous   Login
Location: Observatorio Las Palmas
(29.0667°N, 110.9333°W)
Time: 07:48:17
(UTC-07:00)
Language:

NOAA 19 - Orbit

View from above orbital plane
View from above orbital plane
View from above satellite
View from above satellite

Ground track
Ground track

The orbit data is extracted from the following two-line orbital elements,

1 33591U 09005A   18109.90426169 +.00000072 +00000-0 +64093-4 0  9996
2 33591 099.1374 086.7898 0014763 127.8794 232.3715 14.12270932473683
Epoch (UTC): 19 April 2018 21:42:08
Eccentricity: 0.0014763
inclination: 99.1374°
perigee height: 841 km
apogee height: 862 km
right ascension of ascending node: 86.7898°
argument of perigee: 127.8794°
revolutions per day: 14.12270932
mean anomaly at epoch: 232.3715°
orbit number at epoch: 47368

The dashed part of the orbit path shows where the satellite is in the earth's shadow,  

DLR